Linn Creek, MO

8:19 AM CDT on July 25, 2016 (GMT -0500)
Camdenton

Weather History for KH21 - February, 2014

Change the Weather History Date:

Monday, February 10, 2014

  Actual Average (KAIZ) Record (KAIZ)
Temperature  
Mean Temperature 16 °F -  
Max Temperature 21 °F 44 °F 71 °F (1999)
Min Temperature 10 °F 26 °F -16 °F (2011)
Degree Days  
Heating Degree Days 50    
Moisture  
Dew Point 5 °F    
Average Humidity 64    
Maximum Humidity 86    
Minimum Humidity 49    
Precipitation  
Precipitation 0.00 in - - ()
Sea Level Pressure  
Sea Level Pressure 30.40 in    
Wind  
Wind Speed 7 mph (North)    
Max Wind Speed 10 mph    
Max Gust Speed -    
Visibility 10 miles    
Events Snow    
Averages and records for this station are not official NWS values.
T = Trace of Precipitation, MM = Missing Value Source: NWS Daily Summary

Daily Weather History Graph

Daily Weather History Graph

Search for Another Location

Airport or City:

Trip Planner

Search our weather history database for the weather conditions in past years. The results will help you decide how hot, cold, wet, or windy it might be!

Date:

Astronomy

Feb. 10, 2014 Rise Set
Actual Time 7:06 AM CST 5:44 PM CST
Civil Twilight 6:39 AM CST 6:11 PM CST
Nautical Twilight 6:08 AM CST 6:42 PM CST
Astronomical Twilight 5:37 AM CST 7:13 PM CST
Moon 2:15 PM CST (2/10) 3:58 AM CST (2/10)
Length of Visible Light 11h 32m
Length of Day
10h 37m
Waxing Gibbous, 85% of the Moon is Illuminated
Feb 10
Waxing Gibbous
Feb 14
Full
Feb 22
Last Quarter
Mar 1
New
Mar 8
First Quarter

Hourly Weather History & Observations

Time (CST) Temp. Windchill Dew Point Humidity Pressure Visibility Wind Dir Wind Speed Gust Speed Precip Events Conditions
12:15 AM 19.4 °F 9.5 °F 14.0 °F 80% 30.34 in 10.0 mi North 8.1 mph - N/A   Overcast
12:35 AM 19.4 °F 7.9 °F 14.0 °F 80% 30.33 in 10.0 mi North 10.4 mph - N/A   Overcast
12:55 AM 17.6 °F 6.4 °F 14.0 °F 86% 30.33 in 10.0 mi NNW 9.2 mph - N/A   Overcast
1:15 AM 17.6 °F 7.3 °F 14.0 °F 86% 30.33 in 10.0 mi North 8.1 mph - N/A   Overcast
1:35 AM 17.6 °F 8.2 °F 14.0 °F 86% 30.34 in 10.0 mi NNW 6.9 mph - N/A   Overcast
1:55 AM 17.6 °F 9.3 °F 12.2 °F 79% 30.34 in 10.0 mi North 5.8 mph - N/A   Overcast
2:15 AM 17.6 °F 9.3 °F 12.2 °F 79% 30.34 in 10.0 mi North 5.8 mph - N/A   Overcast
2:35 AM 17.6 °F 8.2 °F 12.2 °F 79% 30.36 in 10.0 mi North 6.9 mph - N/A   Overcast
2:55 AM 17.6 °F 9.3 °F 12.2 °F 79% 30.36 in 10.0 mi North 5.8 mph - N/A   Overcast
3:15 AM 17.6 °F 5.7 °F 8.6 °F 68% 30.36 in 10.0 mi North 10.4 mph - N/A   Overcast
3:35 AM 15.8 °F 6.1 °F 5.0 °F 62% 30.37 in 10.0 mi North 6.9 mph - N/A   Overcast
3:55 AM 15.8 °F 7.2 °F 6.8 °F 68% 30.37 in 10.0 mi North 5.8 mph - N/A   Overcast
4:15 AM 15.8 °F 5.1 °F 6.8 °F 68% 30.37 in 7.0 mi North 8.1 mph - N/A Snow Light Snow
4:35 AM 14.0 °F 5.1 °F 8.6 °F 79% 30.37 in 5.0 mi NNW 5.8 mph - N/A Snow Light Snow
4:55 AM 14.0 °F 2.9 °F 8.6 °F 79% 30.39 in 5.0 mi NNW 8.1 mph - N/A Snow Light Snow
5:15 AM 14.0 °F 3.9 °F 10.4 °F 86% 30.39 in 5.0 mi North 6.9 mph - N/A Snow Light Snow
5:35 AM 14.0 °F 3.9 °F 8.6 °F 79% 30.39 in 5.0 mi North 6.9 mph - N/A Snow Light Snow
5:55 AM 14.0 °F 5.1 °F 8.6 °F 79% 30.39 in 7.0 mi North 5.8 mph - N/A Snow Light Snow
6:15 AM 14.0 °F 1.2 °F 5.0 °F 67% 30.40 in 10.0 mi North 10.4 mph - N/A   Overcast
6:35 AM 12.2 °F -0.2 °F 3.2 °F 67% 30.40 in 10.0 mi North 9.2 mph - N/A   Overcast
6:55 AM 12.2 °F 1.7 °F 1.4 °F 62% 30.41 in 10.0 mi North 6.9 mph - N/A   Overcast
7:15 AM 12.2 °F 0.7 °F 3.2 °F 67% 30.42 in 10.0 mi NNW 8.1 mph - N/A   Scattered Clouds
7:35 AM 12.2 °F 2.9 °F 1.4 °F 62% 30.43 in 10.0 mi North 5.8 mph - N/A   Scattered Clouds
7:55 AM 10.4 °F -0.4 °F 1.4 °F 67% 30.44 in 10.0 mi North 6.9 mph - N/A   Mostly Cloudy
8:15 AM 12.2 °F 2.9 °F 1.4 °F 62% 30.43 in 10.0 mi North 5.8 mph - N/A   Overcast
8:35 AM 10.4 °F 0.8 °F -0.4 °F 62% 30.43 in 10.0 mi North 5.8 mph - N/A   Scattered Clouds
8:55 AM 10.4 °F -2.4 °F 1.4 °F 67% 30.43 in 10.0 mi North 9.2 mph - N/A   Clear
9:15 AM 12.2 °F 1.7 °F 1.4 °F 62% 30.43 in 10.0 mi North 6.9 mph - N/A   Clear
9:35 AM 12.2 °F 2.9 °F -0.4 °F 57% 30.44 in 10.0 mi NNE 5.8 mph - N/A   Clear
9:55 AM 12.2 °F 1.7 °F 1.4 °F 62% 30.44 in 10.0 mi North 6.9 mph - N/A   Clear
10:15 AM 14.0 °F 5.1 °F 1.4 °F 57% 30.45 in 10.0 mi North 5.8 mph - N/A   Clear
10:35 AM 14.0 °F 6.5 °F 1.4 °F 57% 30.45 in 10.0 mi NNE 4.6 mph - N/A   Clear
10:55 AM 15.8 °F 7.2 °F 3.2 °F 58% 30.44 in 10.0 mi North 5.8 mph - N/A   Clear
11:15 AM 15.8 °F 8.6 °F 3.2 °F 58% 30.44 in 10.0 mi NNE 4.6 mph - N/A   Clear
11:35 AM 17.6 °F 8.2 °F 3.2 °F 53% 30.43 in 10.0 mi North 6.9 mph - N/A   Clear
11:55 AM 17.6 °F 10.7 °F 3.2 °F 53% 30.42 in 10.0 mi NNE 4.6 mph - N/A   Clear
12:15 PM 19.4 °F 9.5 °F 5.0 °F 54% 30.42 in 10.0 mi NW 8.1 mph - N/A   Clear
12:35 PM 19.4 °F 14.3 °F 3.2 °F 49% 30.42 in 10.0 mi NNW 3.5 mph - N/A   Clear
12:55 PM 19.4 °F 14.3 °F 3.2 °F 49% 30.41 in 10.0 mi North 3.5 mph - N/A   Clear
1:15 PM 19.4 °F 12.8 °F 5.0 °F 54% 30.40 in 10.0 mi North 4.6 mph - N/A   Mostly Cloudy
1:35 PM 19.4 °F 11.5 °F 5.0 °F 54% 30.40 in 10.0 mi NNW 5.8 mph - N/A   Overcast
1:55 PM 21.2 °F 11.7 °F 5.0 °F 50% 30.38 in 10.0 mi North 8.1 mph - N/A   Mostly Cloudy
2:15 PM 19.4 °F 10.4 °F 5.0 °F 54% 30.37 in 10.0 mi North 6.9 mph - N/A   Overcast
2:35 PM 19.4 °F 14.3 °F 5.0 °F 54% 30.36 in 10.0 mi NNE 3.5 mph - N/A   Overcast
2:55 PM 19.4 °F 12.8 °F 5.0 °F 54% 30.36 in 10.0 mi North 4.6 mph - N/A   Overcast
3:15 PM 19.4 °F 10.4 °F 5.0 °F 54% 30.36 in 10.0 mi North 6.9 mph - N/A   Overcast
3:35 PM 21.2 °F 13.6 °F 5.0 °F 50% 30.36 in 10.0 mi North 5.8 mph - N/A   Scattered Clouds
3:55 PM 21.2 °F 12.6 °F 5.0 °F 50% 30.37 in 10.0 mi NNW 6.9 mph - N/A   Clear
4:15 PM 19.4 °F 11.5 °F 5.0 °F 54% 30.38 in 10.0 mi NW 5.8 mph - N/A   Clear
4:35 PM 19.4 °F 10.4 °F 5.0 °F 54% 30.38 in 10.0 mi North 6.9 mph - N/A   Clear
4:55 PM 19.4 °F 11.5 °F 5.0 °F 54% 30.38 in 10.0 mi North 5.8 mph - N/A   Clear
5:15 PM 19.4 °F 9.5 °F 5.0 °F 54% 30.39 in 10.0 mi NNW 8.1 mph - N/A   Clear
5:35 PM 17.6 °F 7.3 °F 5.0 °F 58% 30.39 in 10.0 mi NNW 8.1 mph - N/A   Clear
5:55 PM 17.6 °F 10.7 °F 5.0 °F 58% 30.40 in 10.0 mi NNW 4.6 mph - N/A   Clear
6:15 PM 17.6 °F 9.3 °F 5.0 °F 58% 30.39 in 10.0 mi North 5.8 mph - N/A   Clear
6:35 PM 15.8 °F 7.2 °F 5.0 °F 62% 30.41 in 10.0 mi NNW 5.8 mph - N/A   Clear
6:55 PM 15.8 °F 6.1 °F 5.0 °F 62% 30.42 in 10.0 mi NNW 6.9 mph - N/A   Clear
7:15 PM 15.8 °F 8.6 °F 5.0 °F 62% 30.43 in 10.0 mi NW 4.6 mph - N/A   Clear
7:35 PM 15.8 °F 6.1 °F 5.0 °F 62% 30.43 in 10.0 mi NNW 6.9 mph - N/A   Clear
7:55 PM 14.0 °F 8.2 °F 5.0 °F 67% 30.42 in 10.0 mi North 3.5 mph - N/A   Clear
8:15 PM 14.0 °F 5.1 °F 3.2 °F 62% 30.43 in 10.0 mi NNW 5.8 mph - N/A   Clear
8:35 PM 14.0 °F 2.9 °F 3.2 °F 62% 30.42 in 10.0 mi North 8.1 mph - N/A   Clear
8:55 PM 14.0 °F 3.9 °F 3.2 °F 62% 30.42 in 10.0 mi North 6.9 mph - N/A   Clear
9:15 PM 14.0 °F 2.0 °F 3.2 °F 62% 30.42 in 10.0 mi North 9.2 mph - N/A   Clear
9:35 PM 12.2 °F 2.9 °F 3.2 °F 67% 30.43 in 10.0 mi North 5.8 mph - N/A   Clear
9:55 PM 12.2 °F 1.7 °F 3.2 °F 67% 30.42 in 10.0 mi North 6.9 mph - N/A   Clear
10:15 PM 12.2 °F 0.7 °F 1.4 °F 62% 30.42 in 10.0 mi North 8.1 mph - N/A   Clear
10:35 PM 12.2 °F 2.9 °F 1.4 °F 62% 30.42 in 10.0 mi North 5.8 mph - N/A   Clear
10:55 PM 12.2 °F 4.3 °F 1.4 °F 62% 30.43 in 10.0 mi North 4.6 mph - N/A   Clear
11:15 PM 12.2 °F 4.3 °F 1.4 °F 62% 30.43 in 10.0 mi North 4.6 mph - N/A   Clear
11:35 PM 10.4 °F 4.0 °F 1.4 °F 67% 30.43 in 10.0 mi North 3.5 mph - N/A   Clear
11:55 PM 10.4 °F 2.2 °F 1.4 °F 67% 30.42 in 10.0 mi NNE 4.6 mph - N/A   Clear